This is the latest recevied weather packets stored in our database for station/object EA7AIS-10. If no packets are shown the sender has not sent any weather packets the latest 10 day(s).
| Time | Temp. | Humidity | Pressure | Rain* | Wind** | Luminosity | Snow |
|---|---|---|---|---|---|---|---|
| 1777351542 | 17.22° C | 87% | 1009.1 hPa | - | - | - | - |
| 1777350642 | 17.22° C | 88% | 1009.2 hPa | - | - | - | - |
| 1777349742 | 16.67° C | 90% | 1009.2 hPa | - | - | - | - |
| 1777348842 | 16.67° C | 92% | 1009.4 hPa | - | - | - | - |
| 1777347942 | 16.67° C | 93% | 1009.4 hPa | - | - | - | - |
| 1777347042 | 16.67° C | 94% | 1009.4 hPa | - | - | - | - |
| 1777346142 | 16.67° C | 95% | 1009.3 hPa | - | - | - | - |
| 1777345242 | 16.67° C | 94% | 1009.3 hPa | - | - | - | - |
| 1777344342 | 17.22° C | 93% | 1009.5 hPa | - | - | - | - |
| 1777343442 | 17.22° C | 94% | 1009.8 hPa | - | - | - | - |
| 1777342542 | 17.22° C | 94% | 1010.5 hPa | - | - | - | - |
| 1777341642 | 17.22° C | 95% | 1010.6 hPa | - | - | - | - |
| 1777340741 | 17.22° C | 94% | 1010.6 hPa | - | - | - | - |
| 1777339841 | 17.22° C | 92% | 1009.9 hPa | - | - | - | - |
| 1777338942 | 17.22° C | 90% | 1010 hPa | - | - | - | - |
| 1777338041 | 17.22° C | 90% | 1010.2 hPa | - | - | - | - |
| 1777337141 | 17.22° C | 89% | 1010.5 hPa | - | - | - | - |
| 1777336241 | 17.22° C | 90% | 1010.7 hPa | - | - | - | - |
| 1777335341 | 17.22° C | 91% | 1010.5 hPa | - | - | - | - |
| 1777334441 | 17.22° C | 92% | 1010.5 hPa | - | - | - | - |
| 1777333541 | 17.22° C | 92% | 1010.5 hPa | - | - | - | - |
| 1777332641 | 17.22° C | 89% | 1010.5 hPa | - | - | - | - |
| 1777331741 | 17.22° C | 87% | 1010.5 hPa | - | - | - | - |
| 1777330841 | 17.22° C | 87% | 1010.5 hPa | - | - | - | - |
| 1777329941 | 17.22° C | 90% | 1010.8 hPa | - | - | - | - |
* Rain since midnight (hover to see other rain measurements)
** Current wind speed in m/s (hover to see current wind gust speed)